星链-32193 (STARLINK-32193)

导读

STARLINK-32193是美国SpaceX公司于2024年8月12日发射的星链(Starlink)系列卫星,属于星链全球卫星互联网星座的组成部分。星链星座通过在近地轨道部署大量小型卫星,旨在为全球尤其是基础设施匮乏地区提供高速低延迟宽带互联网服务,单星设计使用寿命约5-7年,退役后会快速离轨再入大气层,是SpaceX推进星链组网的卫星之一。

基本信息
目录编号:
60428
目录名称:
STARLINK-32193
国际标识:
2024-144D
轨道中心:
EARTH
卫星名称:
星链-32193 (STARLINK-32193)
卫星全名:
星链-32193 (STARLINK-32193)
卫星状态:
在轨 (已飞行753 天)
发射日期:
2024-08-12 UTC
国别 :
美国 (US)
星等 :
--
轨道信息
数据来源 国际轨道数据 AOE轨道数据
星历时间 2026-09-03T23:03:10+0800
14小时前
查看轨道信息
2026-08-30T23:00:00+0800
4天前
查看轨道信息
半长轴 6840.868km 6840.817km
偏心率 0.0001107 0.000001
轨道倾角 53.160° 53.157°
近地点辐角 81.480° 78.359°
升交点赤经 108.403° 127.111°
平近点角 278.633° 122.133°
近地点 461.973km 462.673km
远地点 463.489km 462.687km
周期 93.848分钟 93.847分钟
每日圈数 15.343908 15.344079
详细信息
卫星平台:
Starlink v2.0 mini
运营商:
太空探索技术公司
运营商所在国:
美国
制造商(研发单位):
太空探索技术公司
制造商所在国:
美国
使用方式:
暂无
卫星简介
星链(Starlink)计划是由太空探索技术公司(SpaceX)提出的一个巨型低轨卫星互联网星座项目,计划在2019年至2024年间在太空搭建由约1.2万颗卫星组成的“星链”网络,其中1584颗将部署在地球上空550千米处的近地轨道,并从2020年开始工作。该卫星仍在工作。
2D轨道图
3D轨道图
轨道高度分析图
轨道倾角分析图
轨道综合分析图
查看轨道综合分析图
交会数据列表
事件ID 空间交会对象 最接近时刻(TCA) 交会距离 交会风险概率(CRP) 交会风险指数(CRI) 操作
CDM_260904-232906-042806-370821
2026-09-04T
23:29:41+0000
0.812 km
远距离
7.121129E-6 低风险 0.52
CDM_260905-043806-042806-952921
2026-09-05T
04:38:29+0000
1.499 km
极远距离
5.838823E-6 低风险 0.5
CDM_260904-152301-258606-042824
SL-3 R/B (12586)
2026-09-04T
15:23:07+0000
2.727 km
极远距离
1.516189E-6 低风险 0.39
CDM_260905-061206-042806-952921
2026-09-05T
06:12:17+0000
2.799 km
极远距离
1.301187E-6 低风险 0.37